User: anonymous   Login
Location: Lafig�re
(44.4503°N, 4.0357°E)
Time: 23:13:29
(UTC+00:00)
Language:

Terra - Orbit

View from above orbital plane
View from above orbital plane
View from above satellite
View from above satellite

Ground track
Ground track

The orbit data is extracted from the following two-line orbital elements,

1 25994U 99068A   21210.74350462  .00000079  00000-0  27519-4 0  9992
2 25994  98.1743 284.3898 0001269  98.4626  15.2621 14.57127708149629
Epoch (UTC): 29 July 2021 17:50:38
Eccentricity: 0.0001269
inclination: 98.1743°
perigee height: 701 km
apogee height: 703 km
right ascension of ascending node: 284.3898°
argument of perigee: 98.4626°
revolutions per day: 14.57127708
mean anomaly at epoch: 15.2621°
orbit number at epoch: 14962

The dashed part of the orbit path shows where the satellite is in the earth's shadow,  

DLR